USA-25

operational
NORAD ID: 18025 Int'l Des: 1987-043 Owner: NRO/NRL Country: US
LEO

About USA-25

Description loading...

Live Position

Loading 3D Globe...

Upcoming Passes

Altitude History

Altitude vs Time

uPlot chart will show altitude changes over time

Two-Line Element Set

1 18025U 87043H 26062.60464196 .00016766 00000-0 87299-3 0 9994
2 18025 63.2895 290.0020 0791631 101.3596 267.7379 13.88322092337200
Epoch: Mar 3, 2026 • Age: 22 hours

Current Status

Altitude 921.0 km
Velocity 7.40 km/s
Sub-Earth Point -12.77°S, 20.16°W
Launch Date May 15, 1987
Age 38.8 years
Type other

Technical Details

Classification Payload
Mass 200.00 kg
Dry Mass 200.00 kg
Total Mass 200.00 kg
Length 0.90 m
Diameter 0.40 m
Span 10.00 m
Shape Box + Ant
Manufacturer MM
Bus Type NOSS SSU
Phase Status In Orbit
Owner/State NRO/NRL/US

Large Constellations

Loading constellations...